�������l�o���
Date,Time,MP-1(��Sv/h),MP-2(��Sv/h),MP-3(��Sv/h),MP-4(��Sv/h),MP-5(��Sv/h),MP-6(��Sv/h),MP-7(��Sv/h),MP-8(��Sv/h),����,����(m/s),���J
2022/07/23,00:00,0.577,0.811,0.520,0.977,0.689,0.335,0.577,0.550,�쓌,0.9,��
2022/07/23,00:10,0.575,0.806,0.520,0.979,0.688,0.335,0.576,0.549,���쓌,0.9,��
2022/07/23,00:20,0.575,0.811,0.519,0.979,0.688,0.336,0.577,0.550,��,0.8,��
2022/07/23,00:30,0.576,0.810,0.521,0.978,0.690,0.336,0.576,0.550,-,CALM,��
2022/07/23,00:40,0.575,0.811,0.519,0.978,0.690,0.336,0.575,0.551,-,CALM,��
2022/07/23,00:50,0.576,0.810,0.518,0.980,0.689,0.336,0.575,0.550,-,CALM,��
2022/07/23,01:00,0.575,0.812,0.519,0.979,0.690,0.336,0.577,0.551,�k,0.6,��
2022/07/23,01:10,0.578,0.811,0.521,0.978,0.688,0.337,0.577,0.550,���k��,0.6,��
2022/07/23,01:20,0.576,0.812,0.519,0.979,0.689,0.337,0.577,0.550,�k��,0.6,��
2022/07/23,01:30,0.578,0.810,0.521,0.976,0.691,0.337,0.576,0.551,-,CALM,��
2022/07/23,01:40,0.577,0.813,0.521,0.980,0.690,0.336,0.580,0.552,���쐼,0.9,��
2022/07/23,01:50,0.577,0.812,0.520,0.980,0.689,0.338,0.578,0.551,���쐼,1.1,��
2022/07/23,02:00,0.576,0.814,0.523,0.979,0.690,0.336,0.579,0.551,��,1.2,��
2022/07/23,02:10,0.579,0.814,0.521,0.979,0.691,0.337,0.579,0.551,���k��,1.4,��
2022/07/23,02:20,0.578,0.813,0.521,0.980,0.691,0.338,0.579,0.550,�k��,1.7,��
2022/07/23,02:30,0.577,0.814,0.521,0.978,0.690,0.336,0.579,0.551,�k,0.9,��
2022/07/23,02:40,0.578,0.812,0.522,0.980,0.691,0.338,0.578,0.551,�k,1.2,��
2022/07/23,02:50,0.578,0.813,0.524,0.978,0.691,0.337,0.579,0.550,�k,2.0,��
2022/07/23,03:00,0.578,0.813,0.522,0.981,0.691,0.337,0.579,0.551,�k,0.8,��
2022/07/23,03:10,0.577,0.813,0.520,0.980,0.691,0.338,0.578,0.550,�k�k��,1.2,��
2022/07/23,03:20,0.576,0.814,0.522,0.979,0.691,0.338,0.577,0.550,�k�k��,1.2,��
2022/07/23,03:30,0.578,0.813,0.522,0.981,0.692,0.337,0.581,0.552,�k,1.5,��
2022/07/23,03:40,0.580,0.814,0.522,0.979,0.694,0.339,0.579,0.552,�k�k��,1.1,��
2022/07/23,03:50,0.578,0.814,0.525,0.981,0.691,0.338,0.580,0.552,�k�k��,1.1,��
2022/07/23,04:00,0.580,0.814,0.524,0.981,0.691,0.339,0.580,0.550,�k,0.8,��
2022/07/23,04:10,0.578,0.814,0.524,0.982,0.691,0.338,0.580,0.551,�k,0.8,��
2022/07/23,04:20,0.579,0.814,0.525,0.981,0.692,0.338,0.581,0.552,��,0.6,��
2022/07/23,04:30,0.579,0.815,0.525,0.979,0.694,0.338,0.579,0.551,�쓌,0.8,��
2022/07/23,04:40,0.579,0.812,0.523,0.980,0.692,0.340,0.579,0.551,-,CALM,��
2022/07/23,04:50,0.580,0.814,0.521,0.981,0.694,0.338,0.579,0.551,-,CALM,��
2022/07/23,05:00,0.578,0.815,0.522,0.981,0.692,0.338,0.579,0.552,-,CALM,��
2022/07/23,05:10,0.579,0.814,0.524,0.981,0.691,0.338,0.579,0.552,��,0.9,��
2022/07/23,05:20,0.578,0.813,0.522,0.979,0.694,0.338,0.580,0.552,��쐼,1.2,��
2022/07/23,05:30,0.577,0.815,0.523,0.980,0.693,0.338,0.579,0.551,��,0.6,��
2022/07/23,05:40,0.578,0.813,0.522,0.979,0.693,0.339,0.581,0.552,��,0.8,��
2022/07/23,05:50,0.580,0.817,0.523,0.981,0.692,0.339,0.580,0.553,-,CALM,��
2022/07/23,06:00,0.579,0.816,0.523,0.980,0.696,0.338,0.579,0.553,-,CALM,��
2022/07/23,06:10,0.579,0.813,0.521,0.981,0.691,0.339,0.580,0.551,���k��,0.9,��
2022/07/23,06:20,0.578,0.813,0.522,0.979,0.693,0.339,0.581,0.552,-,CALM,��
2022/07/23,06:30,0.578,0.813,0.521,0.981,0.693,0.338,0.582,0.552,-,CALM,��
2022/07/23,06:40,0.579,0.814,0.523,0.981,0.692,0.338,0.581,0.551,-,CALM,��
2022/07/23,06:50,0.578,0.814,0.522,0.982,0.693,0.338,0.581,0.549,�k�k��,0.6,��
2022/07/23,07:00,0.578,0.813,0.522,0.982,0.693,0.337,0.582,0.551,���k��,1.2,��
2022/07/23,07:10,0.578,0.814,0.521,0.983,0.692,0.338,0.580,0.551,�k��,1.2,��
2022/07/23,07:20,0.579,0.813,0.522,0.981,0.694,0.338,0.580,0.551,�k��,1.9,��
2022/07/23,07:30,0.580,0.814,0.523,0.981,0.693,0.337,0.580,0.550,�k,2.8,��
2022/07/23,07:40,0.581,0.815,0.522,0.981,0.694,0.336,0.581,0.551,�k,3.2,��
2022/07/23,07:50,0.580,0.814,0.523,0.982,0.696,0.338,0.581,0.549,�k,2.8,��
2022/07/23,08:00,0.580,0.812,0.523,0.982,0.695,0.337,0.581,0.549,�k�k��,3.2,��
2022/07/23,08:10,0.579,0.815,0.524,0.983,0.695,0.338,0.580,0.549,�k,3.1,��
2022/07/23,08:20,0.580,0.814,0.524,0.981,0.695,0.338,0.581,0.550,�k,3.3,��
2022/07/23,08:30,0.579,0.816,0.522,0.982,0.696,0.336,0.581,0.550,�k�k��,4.7,��
2022/07/23,08:40,0.578,0.816,0.525,0.982,0.695,0.337,0.581,0.550,�k�k��,4.3,��
2022/07/23,08:50,0.577,0.817,0.523,0.982,0.695,0.336,0.580,0.548,�k�k��,4.3,��
2022/07/23,09:00,0.578,0.816,0.522,0.982,0.695,0.337,0.581,0.550,�k�k��,3.4,��
2022/07/23,09:10,0.580,0.816,0.524,0.984,0.694,0.338,0.581,0.549,�k�k��,2.5,��
2022/07/23,09:20,0.582,0.816,0.525,0.980,0.695,0.337,0.582,0.551,�k�k��,2.8,��
2022/07/23,09:30,0.579,0.817,0.522,0.985,0.694,0.339,0.581,0.551,�k�k��,2.8,��
2022/07/23,09:40,0.583,0.819,0.526,0.980,0.697,0.338,0.582,0.549,�k��,2.8,��
2022/07/23,09:50,0.581,0.818,0.524,0.983,0.697,0.338,0.581,0.550,�k��,2.8,��
2022/07/23,10:00,0.581,0.821,0.526,0.982,0.697,0.338,0.582,0.550,�k��,1.7,��
2022/07/23,10:10,0.584,0.820,0.525,0.983,0.698,0.339,0.583,0.551,�k�k��,2.0,��
2022/07/23,10:20,0.581,0.818,0.527,0.985,0.697,0.338,0.583,0.551,���k��,2.2,��
2022/07/23,10:30,0.581,0.821,0.526,0.986,0.697,0.338,0.583,0.550,��,3.0,��
2022/07/23,10:40,0.580,0.822,0.526,0.986,0.699,0.339,0.582,0.552,���k��,2.3,��
2022/07/23,10:50,0.582,0.821,0.526,0.986,0.699,0.337,0.583,0.552,���k��,2.2,��
2022/07/23,11:00,0.582,0.820,0.527,0.983,0.700,0.339,0.585,0.552,��,2.0,��
2022/07/23,11:10,0.582,0.823,0.527,0.984,0.700,0.339,0.582,0.551,���쓌,2.2,��
2022/07/23,11:20,0.583,0.823,0.527,0.983,0.700,0.338,0.583,0.552,���쓌,2.3,��
2022/07/23,11:30,0.583,0.823,0.528,0.981,0.701,0.339,0.583,0.550,���쓌,2.0,��
2022/07/23,11:40,0.583,0.823,0.528,0.983,0.700,0.340,0.583,0.551,�쓌,2.2,��
2022/07/23,11:50,0.584,0.824,0.527,0.986,0.702,0.340,0.583,0.551,���쓌,2.6,��
2022/07/23,12:00,0.584,0.825,0.528,0.986,0.702,0.338,0.584,0.552,�쓌,3.2,��
2022/07/23,12:10,0.586,0.827,0.528,0.983,0.703,0.338,0.585,0.553,�쓌,2.9,��
2022/07/23,12:20,0.584,0.828,0.528,0.985,0.702,0.338,0.584,0.550,�쓌,3.4,��
2022/07/23,12:30,0.586,0.827,0.527,0.984,0.703,0.340,0.585,0.551,��쓌,4.7,��
2022/07/23,12:40,0.586,0.826,0.528,0.987,0.704,0.340,0.584,0.553,��쓌,5.6,��
2022/07/23,12:50,0.584,0.827,0.529,0.988,0.703,0.339,0.586,0.551,��쓌,5.8,��
2022/07/23,13:00,0.586,0.824,0.529,0.986,0.702,0.339,0.584,0.551,��쓌,6.2,��
2022/07/23,13:10,0.587,0.827,0.530,0.988,0.704,0.340,0.584,0.551,��쓌,6.4,��
2022/07/23,13:20,0.586,0.828,0.530,0.985,0.706,0.340,0.585,0.553,��쓌,6.2,��
2022/07/23,13:30,0.585,0.828,0.529,0.985,0.706,0.340,0.584,0.553,��,6.1,��
2022/07/23,13:40,0.584,0.827,0.528,0.987,0.705,0.341,0.586,0.554,��쓌,4.2,��
2022/07/23,13:50,0.586,0.828,0.530,0.988,0.705,0.340,0.585,0.551,�쓌,4.8,��
2022/07/23,14:00,0.587,0.830,0.529,0.987,0.706,0.339,0.584,0.553,�쓌,3.1,��
2022/07/23,14:10,0.587,0.828,0.529,0.987,0.705,0.340,0.584,0.553,�쓌,4.6,��
2022/07/23,14:20,0.585,0.830,0.530,0.989,0.706,0.339,0.583,0.552,�쓌,3.3,��
2022/07/23,14:30,0.587,0.828,0.530,0.987,0.706,0.341,0.584,0.552,�쓌,4.4,��
2022/07/23,14:40,0.587,0.830,0.528,0.986,0.707,0.341,0.585,0.553,�쓌,4.5,��
2022/07/23,14:50,0.586,0.830,0.529,0.987,0.705,0.341,0.584,0.553,��쓌,3.4,��
2022/07/23,15:00,0.585,0.829,0.531,0.988,0.706,0.339,0.585,0.552,�쓌,2.9,��
2022/07/23,15:10,0.587,0.829,0.531,0.987,0.706,0.340,0.585,0.551,�쓌,3.3,��
2022/07/23,15:20,0.587,0.829,0.530,0.986,0.706,0.340,0.585,0.553,�쓌,3.4,��
2022/07/23,15:30,0.588,0.829,0.530,0.990,0.707,0.340,0.584,0.551,�쓌,3.0,��
2022/07/23,15:40,0.588,0.831,0.530,0.991,0.706,0.340,0.583,0.553,�쓌,4.1,��
2022/07/23,15:50,0.588,0.832,0.531,0.989,0.708,0.341,0.584,0.552,�쓌,3.6,��
2022/07/23,16:00,0.588,0.831,0.531,0.989,0.708,0.339,0.586,0.551,��쓌,3.2,��
2022/07/23,16:10,0.587,0.832,0.530,0.990,0.707,0.340,0.584,0.553,��쓌,3.5,��
2022/07/23,16:20,0.587,0.831,0.530,0.992,0.708,0.340,0.585,0.552,�쓌,2.6,��
2022/07/23,16:30,0.586,0.830,0.530,0.989,0.708,0.340,0.584,0.552,�쓌,2.0,��
2022/07/23,16:40,0.588,0.830,0.530,0.991,0.707,0.339,0.586,0.552,��쓌,2.3,��
2022/07/23,16:50,0.587,0.829,0.531,0.990,0.708,0.340,0.586,0.551,�쓌,2.3,��
2022/07/23,17:00,0.588,0.830,0.531,0.990,0.707,0.340,0.586,0.551,��쓌,3.4,��
2022/07/23,17:10,0.589,0.831,0.529,0.989,0.708,0.340,0.585,0.553,�쓌,1.4,��
2022/07/23,17:20,0.588,0.831,0.530,0.991,0.706,0.341,0.584,0.552,��,0.9,��
2022/07/23,17:30,0.588,0.830,0.530,0.992,0.708,0.340,0.584,0.551,�k�k��,1.2,��
2022/07/23,17:40,0.588,0.830,0.531,0.991,0.707,0.342,0.583,0.553,�k�k��,1.5,��
2022/07/23,17:50,0.589,0.830,0.529,0.992,0.707,0.342,0.584,0.553,�k��,3.8,��
2022/07/23,18:00,0.589,0.830,0.531,0.991,0.706,0.341,0.585,0.552,�k�k��,3.1,��
2022/07/23,18:10,0.588,0.830,0.530,0.991,0.706,0.342,0.585,0.552,�k�k��,2.9,��
2022/07/23,18:20,0.588,0.829,0.531,0.991,0.708,0.341,0.583,0.554,�k��,1.7,��
2022/07/23,18:30,0.587,0.830,0.530,0.992,0.708,0.341,0.584,0.552,�k�k��,1.9,��
2022/07/23,18:40,0.587,0.832,0.531,0.989,0.708,0.342,0.586,0.553,�k�k��,2.2,��
2022/07/23,18:50,0.588,0.830,0.530,0.992,0.709,0.342,0.583,0.552,�k�k��,1.9,��
2022/07/23,19:00,0.589,0.832,0.530,0.991,0.708,0.341,0.585,0.554,�k,2.5,��
2022/07/23,19:10,0.586,0.832,0.530,0.992,0.708,0.341,0.583,0.554,���k��,1.4,��
2022/07/23,19:20,0.588,0.832,0.532,0.992,0.708,0.341,0.584,0.554,��,1.4,��
2022/07/23,19:30,0.588,0.831,0.533,0.992,0.708,0.341,0.583,0.552,�k�k��,0.9,��
2022/07/23,19:40,0.587,0.831,0.532,0.990,0.708,0.342,0.584,0.552,���k��,1.7,��
2022/07/23,19:50,0.591,0.831,0.531,0.992,0.709,0.341,0.584,0.553,���쐼,1.1,��
2022/07/23,20:00,0.588,0.832,0.531,0.992,0.708,0.342,0.583,0.553,��,2.3,��
2022/07/23,20:10,0.588,0.831,0.532,0.993,0.708,0.340,0.583,0.551,��,2.6,��
2022/07/23,20:20,0.591,0.831,0.531,0.992,0.708,0.341,0.584,0.553,���k��,2.9,��
2022/07/23,20:30,0.588,0.830,0.532,0.991,0.709,0.341,0.583,0.554,��,3.9,��
2022/07/23,20:40,0.590,0.833,0.533,0.992,0.708,0.341,0.584,0.553,���k��,3.2,��
2022/07/23,20:50,0.590,0.832,0.533,0.994,0.708,0.340,0.584,0.554,���k��,2.2,��
2022/07/23,21:00,0.590,0.832,0.531,0.995,0.709,0.340,0.585,0.552,��,1.2,��
2022/07/23,21:10,0.588,0.832,0.531,0.996,0.708,0.341,0.583,0.553,��,2.2,��
2022/07/23,21:20,0.589,0.832,0.531,0.994,0.709,0.340,0.584,0.553,���k��,3.9,��
2022/07/23,21:30,0.589,0.832,0.533,0.994,0.710,0.340,0.584,0.553,��,5.5,��
2022/07/23,21:40,0.588,0.833,0.532,0.994,0.710,0.342,0.586,0.553,��,5.7,��
2022/07/23,21:50,0.588,0.832,0.530,0.997,0.707,0.340,0.584,0.553,���k��,5.4,��
2022/07/23,22:00,0.587,0.834,0.529,0.994,0.710,0.341,0.584,0.553,���k��,3.2,��
2022/07/23,22:10,0.587,0.833,0.531,0.994,0.709,0.341,0.584,0.553,���쐼,0.9,��
2022/07/23,22:20,0.588,0.831,0.531,0.994,0.708,0.339,0.584,0.552,��,1.1,��
2022/07/23,22:30,0.588,0.833,0.531,0.993,0.709,0.342,0.584,0.552,���k��,2.3,��
2022/07/23,22:40,0.587,0.832,0.531,0.995,0.710,0.340,0.582,0.553,���k��,4.3,��
2022/07/23,22:50,0.587,0.832,0.530,0.994,0.709,0.339,0.585,0.552,���k��,4.1,��
2022/07/23,23:00,0.588,0.833,0.532,0.994,0.708,0.342,0.586,0.552,���k��,4.0,��
2022/07/23,23:10,0.586,0.834,0.531,0.996,0.707,0.340,0.584,0.552,���k��,4.8,��
2022/07/23,23:20,0.586,0.833,0.530,0.994,0.709,0.340,0.586,0.553,���k��,5.1,��
2022/07/23,23:30,0.588,0.833,0.532,0.995,0.710,0.340,0.585,0.553,���k��,3.3,��
2022/07/23,23:40,0.587,0.831,0.531,0.994,0.709,0.341,0.585,0.554,���k��,2.5,��
2022/07/23,23:50,0.586,0.833,0.531,0.996,0.710,0.341,0.586,0.553,���쐼,0.9,��
